• En Estados Unidos
  • Lista de países
  • Para 7 días
  • Temperatura del agua
  • Mapa Satelital
  • El tiempo en el mapa
  • Informadores
  • user-avatar
    Iniciar sesión

    Tiempo cada hora Saurimo

    Hoy, 20 Enero, Sábado

    Tiempo Temperatura Precipitaciones Viento Presión Humedad
    00:00 +19°C° 0 mm 1 mps 669 mmHg 98%
    01:00 +19°C° 0 mm 1 mps 669 mmHg 99%
    02:00 +19°C° 0,1 mm 1 mps 669 mmHg 99%
    03:00 +19°C° 0,1 mm 1 mps 669 mmHg 99%
    04:00 +19°C° 0,1 mm 1 mps 669 mmHg 99%
    05:00 +19°C° 0 mm 1 mps 669 mmHg 98%
    06:00 +20°C° 0 mm 1 mps 670 mmHg 97%
    07:00 +20°C° 0 mm 1 mps 670 mmHg 96%
    08:00 +21°C° 0,2 mm 1 mps 670 mmHg 92%
    09:00 +23°C° 0,2 mm 1 mps 670 mmHg 88%
    10:00 +24°C° 0,2 mm 2 mps 670 mmHg 84%
    11:00 +24°C° 0,7 mm 2 mps 670 mmHg 82%
    12:00 +25°C° 0,7 mm 2 mps 670 mmHg 81%
    13:00 +26°C° 0,7 mm 2 mps 669 mmHg 80%
    14:00 +25°C° 1,9 mm 2 mps 669 mmHg 82%
    15:00 +25°C° 1,9 mm 2 mps 668 mmHg 85%
    16:00 +24°C° 1,9 mm 2 mps 668 mmHg 87%
    17:00 +23°C° 1,1 mm 1 mps 668 mmHg 89%
    18:00 +22°C° 1,1 mm 1 mps 668 mmHg 92%
    19:00 +21°C° 1,1 mm 1 mps 668 mmHg 95%
    20:00 +21°C° 0,4 mm 1 mps 669 mmHg 95%
    21:00 +21°C° 0,4 mm 1 mps 669 mmHg 96%
    22:00 +20°C° 0,4 mm 1 mps 670 mmHg 96%
    23:00 +20°C° 0,5 mm 1 mps 670 mmHg 97%

    Mañana, 21 Enero, Domingo

    Tiempo Temperatura Precipitaciones Viento Presión Humedad
    00:00 +20°C° 0,5 mm 1 mps 669 mmHg 97%
    01:00 +20°C° 0,5 mm 1 mps 669 mmHg 97%
    02:00 +20°C° 0,4 mm 1 mps 669 mmHg 97%
    03:00 +19°C° 0,4 mm 1 mps 669 mmHg 97%
    04:00 +19°C° 0,4 mm 1 mps 669 mmHg 97%
    05:00 +20°C° 0,2 mm 1 mps 669 mmHg 96%
    06:00 +20°C° 0,2 mm 1 mps 670 mmHg 95%
    07:00 +20°C° 0,2 mm 1 mps 670 mmHg 94%
    08:00 +22°C° 0,5 mm 1 mps 671 mmHg 91%
    09:00 +23°C° 0,5 mm 1 mps 671 mmHg 87%
    10:00 +24°C° 0,5 mm 2 mps 671 mmHg 84%
    11:00 +25°C° 1,2 mm 2 mps 670 mmHg 82%
    12:00 +25°C° 1,2 mm 2 mps 670 mmHg 81%
    13:00 +26°C° 1,2 mm 2 mps 669 mmHg 80%
    14:00 +25°C° 1,7 mm 1 mps 669 mmHg 82%
    15:00 +25°C° 1,7 mm 1 mps 668 mmHg 85%
    16:00 +24°C° 1,7 mm 1 mps 668 mmHg 88%
    17:00 +23°C° 0,6 mm 1 mps 668 mmHg 90%
    18:00 +22°C° 0,6 mm 1 mps 668 mmHg 91%
    19:00 +19°C° 0,6 mm 0 mps 669 mmHg 93%
    20:00 +19°C° 0,5 mm 0 mps 669 mmHg 94%
    21:00 +19°C° 0,5 mm 0 mps 670 mmHg 94%
    22:00 +18°C° 0,5 mm 0 mps 670 mmHg 95%
    23:00 +20°C° 0,8 mm 1 mps 670 mmHg 96%

    Pasado mañana, 22 Enero, Lunes

    Tiempo Temperatura Precipitaciones Viento Presión Humedad
    00:00 +20°C° 0,8 mm 1 mps 670 mmHg 96%
    01:00 +20°C° 0,8 mm 1 mps 669 mmHg 97%
    02:00 +20°C° 0,6 mm 1 mps 669 mmHg 97%
    03:00 +20°C° 0,6 mm 1 mps 669 mmHg 97%
    04:00 +19°C° 0,6 mm 1 mps 669 mmHg 97%
    05:00 +20°C° 0,3 mm 1 mps 669 mmHg 97%
    06:00 +20°C° 0,3 mm 1 mps 670 mmHg 97%
    07:00 +20°C° 0,3 mm 1 mps 670 mmHg 96%
    08:00 +20°C° 0,7 mm 2 mps 671 mmHg 95%
    09:00 +20°C° 0,7 mm 2 mps 671 mmHg 93%
    10:00 +21°C° 0,7 mm 3 mps 671 mmHg 91%
    11:00 +21°C° 0,3 mm 3 mps 670 mmHg 88%
    12:00 +23°C° 0,3 mm 2 mps 670 mmHg 85%
    13:00 +24°C° 0,3 mm 2 mps 669 mmHg 81%
    14:00 +24°C° 0,1 mm 2 mps 669 mmHg 79%
    15:00 +25°C° 0,1 mm 2 mps 668 mmHg 77%
    16:00 +25°C° 0,1 mm 2 mps 668 mmHg 75%
    17:00 +24°C° 0,4 mm 2 mps 668 mmHg 81%
    18:00 +22°C° 0,4 mm 1 mps 669 mmHg 87%
    19:00 +21°C° 0,4 mm 1 mps 669 mmHg 93%
    20:00 +21°C° 0,1 mm 1 mps 669 mmHg 94%
    21:00 +20°C° 0,1 mm 1 mps 670 mmHg 95%
    22:00 +20°C° 0,1 mm 1 mps 670 mmHg 95%
    23:00 +20°C° 0 mm 1 mps 669 mmHg 96%

    23 Enero, Martes

    Tiempo Temperatura Precipitaciones Viento Presión Humedad
    00:00 +20°C° 0 mm 1 mps 669 mmHg 96%
    01:00 +19°C° 0 mm 1 mps 668 mmHg 97%
    02:00 +19°C° 0 mm 1 mps 668 mmHg 97%
    03:00 +19°C° 0 mm 1 mps 668 mmHg 97%
    04:00 +19°C° 0 mm 1 mps 668 mmHg 97%
    05:00 +19°C° 0 mm 1 mps 668 mmHg 96%
    06:00 +20°C° 0 mm 1 mps 669 mmHg 94%
    07:00 +19°C° 0 mm 2 mps 670 mmHg 93%
    08:00 +21°C° 0,4 mm 2 mps 670 mmHg 89%
    09:00 +23°C° 0,4 mm 2 mps 670 mmHg 85%
    10:00 +24°C° 0,4 mm 3 mps 670 mmHg 81%
    11:00 +25°C° 0,8 mm 3 mps 670 mmHg 77%
    12:00 +26°C° 0,8 mm 3 mps 669 mmHg 73%
    13:00 +27°C° 0,8 mm 3 mps 668 mmHg 69%
    14:00 +27°C° 0,5 mm 3 mps 668 mmHg 71%
    15:00 +26°C° 0,5 mm 2 mps 667 mmHg 74%
    16:00 +26°C° 0,5 mm 2 mps 667 mmHg 77%
    17:00 +25°C° 0,5 mm 2 mps 667 mmHg 82%
    18:00 +23°C° 0,5 mm 2 mps 668 mmHg 87%
    19:00 +20°C° 0,5 mm 2 mps 668 mmHg 92%
    20:00 +20°C° 0 mm 2 mps 668 mmHg 93%
    21:00 +19°C° 0 mm 2 mps 669 mmHg 94%
    22:00 +20°C° 0 mm 1 mps 669 mmHg 95%
    23:00 +19°C° 0 mm 1 mps 668 mmHg 95%

    24 Enero, Miércoles

    Tiempo Temperatura Precipitaciones Viento Presión Humedad
    00:00 +19°C° 0 mm 1 mps 668 mmHg 96%
    01:00 +19°C° 0 mm 1 mps 667 mmHg 96%
    02:00 +19°C° 0 mm 1 mps 667 mmHg 96%
    03:00 +19°C° 0 mm 1 mps 668 mmHg 95%
    04:00 +19°C° 0 mm 1 mps 668 mmHg 95%
    05:00 +19°C° 0 mm 1 mps 668 mmHg 94%
    06:00 +20°C° 0 mm 1 mps 669 mmHg 93%
    07:00 +20°C° 0 mm 1 mps 669 mmHg 92%
    08:00 +22°C° 0,2 mm 1 mps 670 mmHg 85%
    09:00 +24°C° 0,2 mm 1 mps 670 mmHg 79%
    10:00 +26°C° 0,2 mm 2 mps 670 mmHg 73%
    11:00 +26°C° 0,7 mm 2 mps 670 mmHg 71%
    12:00 +27°C° 0,7 mm 3 mps 669 mmHg 69%
    13:00 +27°C° 0,7 mm 3 mps 668 mmHg 67%
    14:00 +27°C° 0,7 mm 3 mps 668 mmHg 70%
    15:00 +26°C° 0,7 mm 3 mps 668 mmHg 73%
    16:00 +26°C° 0,7 mm 2 mps 667 mmHg 76%
    17:00 +24°C° 0,7 mm 2 mps 668 mmHg 82%
    18:00 +23°C° 0,7 mm 2 mps 668 mmHg 88%
    19:00 +20°C° 0,7 mm 2 mps 668 mmHg 94%
    20:00 +20°C° 0,1 mm 1 mps 668 mmHg 95%
    21:00 +20°C° 0,1 mm 1 mps 669 mmHg 95%
    22:00 +19°C° 0,1 mm 1 mps 669 mmHg 96%
    23:00 +19°C° 0,1 mm 1 mps 669 mmHg 96%

    25 Enero, Jueves

    Tiempo Temperatura Precipitaciones Viento Presión Humedad
    00:00 +19°C° 0,1 mm 1 mps 668 mmHg 97%
    01:00 +19°C° 0,1 mm 1 mps 668 mmHg 97%
    02:00 +18°C° 0 mm 1 mps 668 mmHg 97%
    03:00 +18°C° 0 mm 1 mps 668 mmHg 97%
    04:00 +18°C° 0 mm 1 mps 668 mmHg 97%
    05:00 +19°C° 0 mm 1 mps 668 mmHg 95%
    06:00 +18°C° 0 mm 0 mps 669 mmHg 94%
    07:00 +18°C° 0 mm 0 mps 669 mmHg 93%
    08:00 +22°C° 0 mm 1 mps 670 mmHg 84%
    09:00 +25°C° 0 mm 1 mps 670 mmHg 75%
    10:00 +27°C° 0 mm 1 mps 670 mmHg 66%
    11:00 +27°C° 1 mm 1 mps 670 mmHg 67%
    12:00 +27°C° 1 mm 2 mps 669 mmHg 67%
    13:00 +28°C° 1 mm 2 mps 668 mmHg 67%
    14:00 +27°C° 0,7 mm 2 mps 668 mmHg 70%
    15:00 +27°C° 0,7 mm 1 mps 668 mmHg 72%
    16:00 +27°C° 0,7 mm 1 mps 668 mmHg 74%
    17:00 +25°C° 0,4 mm 1 mps 668 mmHg 79%
    18:00 +23°C° 0,4 mm 1 mps 668 mmHg 84%
    19:00 +21°C° 0,4 mm 1 mps 668 mmHg 89%
    20:00 +21°C° 0,2 mm 1 mps 668 mmHg 90%
    21:00 +20°C° 0,2 mm 1 mps 668 mmHg 91%
    22:00 +20°C° 0,2 mm 1 mps 669 mmHg 92%
    23:00 +20°C° 0,1 mm 1 mps 668 mmHg 92%
    Mostrar más